Regional Weather Roundup
Issued by NWS Kansas City/Pleasant Hill, MO

Home | Current Version | Previous Version | Graphics & Text | Print | Product List | Glossary Off
Versions: 1 2 3 4 5 6 7 8 9 10 11 12 13 14 15 16 17 18 19 20 21 22 23 24 25 26 27 28

000
ASUS43 KEAX 052210
RWREAX

WEATHER ROUNDUP FOR EASTERN KANSAS AND NORTHWEST MISSOURI
NATIONAL WEATHER SERVICE KANSAS CITY/PLEASANT HILL MO
500 PM CDT THU MAY 05 2016

KSZ040-057-103>105-MOZ028-029-037-043-052300-
...KANSAS CITY METROPOLITAN AREA...

CITY           SKY/WX    TMP DP  RH WIND       PRES   REMARKS
K.C. INTL      MOSUNNY   72  39  30 CALM      30.05F
K.C. DOWNTOWN  SUNNY     74  35  24 CALM      30.03F
LEES SUMMIT    SUNNY     72  34  24 N7        30.05F
OLATHE - IXD   SUNNY     72  37  28 N7        30.05F
OLATHE - OJC   SUNNY     71  35  26 VRB3      30.04F
LAWRENCE       SUNNY     75  39  27 N7        30.04F

$$

MOZ001>008-011>017-020>025-030>033-038>040-044>046-053-054-052300-
...NORTHERN AND CENTRAL MISSOURI...

CITY           SKY/WX    TMP DP  RH WIND       PRES   REMARKS
ST. JOSEPH     SUNNY     73  35  25 NE5       30.04F
MOSBY          CLEAR     72  30  21 N7        30.04F
WHITEMAN AFB   MOSUNNY   71  33  24 NW8       30.03S
CLINTON        SUNNY     70  36  28 N7        30.05S
SEDALIA        SUNNY     72  30  21 N7        30.05S
WARSAW         NOT AVBL
CHILLICOTHE      N/A     72  33  24 VRB5      30.05F
KIRKSVILLE     SUNNY     68  33  27 N6        30.05F

$$

MOZ041-047>049-056>058-063>065-088>090-097-052300-
...EASTERN AND SOUTHERN MISSOURI...

CITY           SKY/WX    TMP DP  RH WIND       PRES   REMARKS
ST. LOUIS INTL MOSUNNY   67  42  40 N9        30.01F
SPIRIT OF STL  MOSUNNY   67  42  40 N7        30.00F
COLUMBIA       SUNNY     69  35  28 N14       30.03F
JEFFERSON CITY SUNNY     70  35  27 N8        30.02F
ROLLA          SUNNY     66  39  37 N12       30.00F
OSAGE BEACH    SUNNY     70  34  26 N6        30.03S
SPRINGFIELD    SUNNY     71  32  23 N12       30.02F
BRANSON        MOSUNNY   72  34  25 N14G24    30.02F
JOPLIN         SUNNY     72  43  35 N10       30.04F
WEST PLAINS    SUNNY     70  31  23 N12G23    30.00S

$$

IAZ060-094-KSZ022-034>040-054-083-096-NEZ052-066-093-052300-
...KANSAS...SOUTHEAST NEBRASKA AND IOWA...

CITY           SKY/WX    TMP DP  RH WIND       PRES   REMARKS
TOPEKA         SUNNY     75  43  31 VRB5      30.03F
MANHATTAN      SUNNY     79  38  22 E5        30.02F
EMPORIA        SUNNY     76  41  28 VRB6      30.03F
CHANUTE        SUNNY     77  42  28 VRB5      30.03F
WICHITA        MOSUNNY   81  38  21 N3        30.03F
OMAHA          PTSUNNY   79  38  22 CALM      30.01F
LINCOLN        SUNNY     80  38  22 SE8       30.02F
FALLS CITY     SUNNY     75  40  28 CALM      30.03F
LAMONI         SUNNY     69  37  30 NW8       30.04F
DES MOINES     MOSUNNY   72  32  23 W5        30.03F

$$





USA.gov is the U.S. government's official web portal to all federal, state and local government web resources and services.